{"data":{"norad_id":69101,"epoch":"2026-09-20T04:08:59.765280Z","epoch_age_seconds":51571,"freshness":"FRESH","line1":"1 69101U 26106E   26263.17291395  .00005197  00000+0  30141-3 0  9991","line2":"2 69101  97.5018 343.6173 0016034 198.7707 161.2935 15.12494456 19333","mean_motion":15.12494456,"eccentricity":0.0016034,"inclination_deg":97.5018,"raan_deg":343.6173,"arg_perigee_deg":198.7707,"mean_anomaly_deg":161.2935,"bstar":0.00030141,"rev_number":1933,"period_min":95.206960547034,"perigee_km":517.52142084391,"apogee_km":539.66993118936,"semimajor_km":6906.7326760166,"source":"CELESTRAK","updated_at":"2026-09-20T09:00:24.676856Z"}}